Waycross, GA

3:44 PM EDT on June 26, 2017 (GMT -0400)
Waycross-Ware County

Weather History for KAYS - March, 2013

Change the Weather History Date:

Saturday, March 2, 2013

  Actual Average (KAMG) Record (KAMG)
Temperature  
Mean Temperature 40 °F -  
Max Temperature 46 °F 70 °F 85 °F (1951)
Min Temperature 33 °F 44 °F 25 °F (1980)
Degree Days  
Heating Degree Days 26    
Moisture  
Dew Point 31 °F    
Average Humidity 70    
Maximum Humidity 93    
Minimum Humidity 50    
Precipitation  
Precipitation 0.00 in - - ()
Sea Level Pressure  
Sea Level Pressure 30.00 in    
Wind  
Wind Speed 6 mph (WNW)    
Max Wind Speed 17 mph    
Max Gust Speed 23 mph    
Visibility 10 miles    
Events      
Averages and records for this station are not official NWS values.
T = Trace of Precipitation, MM = Missing Value Source: NWS Daily Summary

Daily Weather History Graph

Daily Weather History Graph

Search for Another Location

Airport or City:

Trip Planner

Search our weather history database for the weather conditions in past years. The results will help you decide how hot, cold, wet, or windy it might be!

Date:

Astronomy

Mar. 02, 2013 Rise Set
Actual Time 6:54 AM EST 6:28 PM EST
Civil Twilight 6:30 AM EST 6:53 PM EST
Nautical Twilight 6:02 AM EST 7:21 PM EST
Astronomical Twilight 5:34 AM EST 7:49 PM EST
Moon 11:42 PM EST (3/2) 9:44 AM EST (3/2)
Length of Visible Light 12h 22m
Length of Day
11h 33m
Waning Gibbous, 74% of the Moon is Illuminated
Mar 2
Waning Gibbous
Mar 4
Last Quarter
Mar 11
New
Mar 19
First Quarter
Mar 27
Full

Hourly Weather History & Observations

Time (EST) Temp. Windchill Dew Point Humidity Pressure Visibility Wind Dir Wind Speed Gust Speed Precip Events Conditions
12:15 AM 42.8 °F 38.0 °F 35.6 °F 76% 30.01 in 10.0 mi WNW 8.1 mph - N/A   Unknown
12:35 AM 41.0 °F 38.0 °F 35.6 °F 81% 30.01 in 10.0 mi WNW 4.6 mph - N/A   Unknown
12:55 AM 39.2 °F - 33.8 °F 81% 30.01 in 10.0 mi Calm Calm - N/A   Unknown
1:15 AM 37.4 °F - 33.8 °F 87% 30.01 in 10.0 mi Calm Calm - N/A   Unknown
1:35 AM 37.4 °F - 35.6 °F 93% 30.01 in 10.0 mi Calm Calm - N/A   Unknown
1:55 AM 37.4 °F - 33.8 °F 87% 30.00 in 10.0 mi Calm Calm - N/A   Unknown
2:15 AM 37.4 °F - 33.8 °F 87% 30.00 in 10.0 mi Calm Calm - N/A   Unknown
2:35 AM 35.6 °F 32.8 °F 33.8 °F 93% 30.00 in 10.0 mi West 3.5 mph - N/A   Unknown
2:55 AM 33.8 °F - 32.0 °F 93% 30.00 in 10.0 mi Calm Calm - N/A   Unknown
3:15 AM 33.8 °F - 32.0 °F 93% 30.00 in 10.0 mi Calm Calm - N/A   Unknown
3:35 AM 33.8 °F - 32.0 °F 93% 29.99 in 10.0 mi Calm Calm - N/A   Unknown
3:55 AM 33.8 °F 30.8 °F 30.2 °F 87% 29.99 in 10.0 mi WSW 3.5 mph - N/A   Unknown
4:15 AM 33.8 °F 28.6 °F 32.0 °F 93% 30.00 in 10.0 mi WSW 5.8 mph - N/A   Unknown
4:35 AM 33.8 °F 29.6 °F 32.0 °F 93% 30.00 in 10.0 mi WSW 4.6 mph - N/A   Unknown
4:55 AM 35.6 °F 30.7 °F 32.0 °F 87% 29.99 in 10.0 mi West 5.8 mph - N/A   Unknown
5:15 AM 35.6 °F 31.7 °F 32.0 °F 87% 30.00 in 10.0 mi West 4.6 mph - N/A   Unknown
5:35 AM 35.6 °F 30.7 °F 32.0 °F 87% 30.00 in 10.0 mi West 5.8 mph - N/A   Unknown
5:55 AM 35.6 °F 32.8 °F 32.0 °F 87% 29.99 in 10.0 mi West 3.5 mph - N/A   Unknown
6:15 AM 35.6 °F 32.8 °F 32.0 °F 87% 29.99 in 10.0 mi West 3.5 mph - N/A   Unknown
6:35 AM 33.8 °F 29.6 °F 32.0 °F 93% 29.99 in 10.0 mi West 4.6 mph - N/A   Unknown
6:55 AM 33.8 °F 30.8 °F 32.0 °F 93% 29.99 in 10.0 mi West 3.5 mph - N/A   Unknown
7:15 AM 33.8 °F 30.8 °F 30.2 °F 87% 29.99 in 10.0 mi WSW 3.5 mph - N/A   Unknown
7:35 AM 35.6 °F - 33.8 °F 93% 29.99 in 10.0 mi Calm Calm - N/A   Unknown
7:55 AM 37.4 °F 33.8 °F 33.8 °F 87% 30.00 in 10.0 mi West 4.6 mph - N/A   Unknown
8:15 AM 37.4 °F 32.1 °F 33.8 °F 87% 30.00 in 10.0 mi West 6.9 mph - N/A   Unknown
8:35 AM 39.2 °F 32.5 °F 33.8 °F 81% 30.00 in 10.0 mi West 10.4 mph - N/A   Unknown
8:55 AM 39.2 °F 32.0 °F 33.8 °F 81% 30.00 in 10.0 mi WNW 11.5 mph - N/A   Unknown
9:15 AM 42.8 °F 36.6 °F 33.8 °F 70% 30.01 in 10.0 mi WNW 11.5 mph 18.4 mph N/A   Unknown
9:35 AM 42.8 °F 37.0 °F 33.8 °F 70% 30.00 in 10.0 mi West 10.4 mph - N/A   Unknown
9:55 AM 44.6 °F 39.2 °F 33.8 °F 66% 30.00 in 10.0 mi WNW 10.4 mph 18.4 mph N/A   Unknown
10:15 AM 44.6 °F 38.1 °F 33.8 °F 66% 30.00 in 10.0 mi WNW 13.8 mph 20.7 mph N/A   Unknown
10:35 AM 44.6 °F 39.7 °F 33.8 °F 66% 30.00 in 10.0 mi WNW 9.2 mph 18.4 mph N/A   Unknown
10:55 AM 46.4 °F 42.4 °F 33.8 °F 62% 30.00 in 10.0 mi NW 8.1 mph - N/A   Overcast
11:15 AM 46.4 °F 41.1 °F 32.0 °F 57% 30.00 in 10.0 mi West 11.5 mph 18.4 mph N/A   Overcast
11:35 AM 46.4 °F 41.1 °F 30.2 °F 53% 30.00 in 10.0 mi WNW 11.5 mph 18.4 mph N/A   Overcast
11:55 AM 44.6 °F 37.8 °F 30.2 °F 57% 30.00 in 10.0 mi WNW 15.0 mph 23.0 mph N/A   Overcast
12:15 PM 46.4 °F 40.4 °F 30.2 °F 53% 30.00 in 10.0 mi West 13.8 mph 23.0 mph N/A   Overcast
12:35 PM 44.6 °F 37.4 °F 30.2 °F 57% 30.00 in 10.0 mi WNW 16.1 mph 21.9 mph N/A   Unknown
12:55 PM 46.4 °F 40.1 °F 30.2 °F 53% 29.99 in 10.0 mi WNW 15.0 mph 20.7 mph N/A   Unknown
1:15 PM 44.6 °F 37.8 °F 30.2 °F 57% 29.98 in 10.0 mi WNW 15.0 mph 23.0 mph N/A   Unknown
1:35 PM 44.6 °F 37.4 °F 28.4 °F 53% 29.98 in 10.0 mi WNW 16.1 mph 21.9 mph N/A   Unknown
1:55 PM 44.6 °F 37.2 °F 28.4 °F 53% 29.97 in 10.0 mi WNW 17.3 mph 23.0 mph N/A   Unknown
2:15 PM 46.4 °F 40.4 °F 28.4 °F 50% 29.97 in 10.0 mi WNW 13.8 mph - N/A   Unknown
2:35 PM 46.4 °F 40.1 °F 28.4 °F 50% 29.97 in 10.0 mi West 15.0 mph - N/A   Unknown
2:55 PM 44.6 °F 37.8 °F 28.4 °F 53% 29.97 in 10.0 mi West 15.0 mph 19.6 mph N/A   Unknown
3:15 PM 44.6 °F 38.8 °F 30.2 °F 57% 29.97 in 10.0 mi NW 11.5 mph 16.1 mph N/A   Unknown
3:35 PM 44.6 °F 38.8 °F 28.4 °F 53% 29.97 in 10.0 mi West 11.5 mph - N/A   Unknown
3:55 PM 44.6 °F 37.8 °F 28.4 °F 53% 29.97 in 10.0 mi WNW 15.0 mph - N/A   Unknown
4:15 PM 44.6 °F 38.4 °F 28.4 °F 53% 29.97 in 10.0 mi WNW 12.7 mph - N/A   Unknown
4:35 PM 44.6 °F 38.4 °F 28.4 °F 53% 29.97 in 10.0 mi WNW 12.7 mph 21.9 mph N/A   Unknown
4:55 PM 44.6 °F 39.2 °F 28.4 °F 53% 29.97 in 10.0 mi WNW 10.4 mph 18.4 mph N/A   Unknown
5:15 PM 44.6 °F 38.8 °F 28.4 °F 53% 29.98 in 10.0 mi WNW 11.5 mph - N/A   Unknown
5:35 PM 42.8 °F 36.6 °F 30.2 °F 61% 29.98 in 10.0 mi WNW 11.5 mph - N/A   Unknown
5:55 PM 42.8 °F 38.0 °F 30.2 °F 61% 29.99 in 10.0 mi West 8.1 mph - N/A   Unknown
6:15 PM 42.8 °F 37.5 °F 30.2 °F 61% 29.99 in 10.0 mi West 9.2 mph - N/A   Unknown
6:35 PM 42.8 °F 38.0 °F 30.2 °F 61% 30.00 in 10.0 mi West 8.1 mph - N/A   Unknown
6:55 PM 42.8 °F 38.6 °F 30.2 °F 61% 30.00 in 10.0 mi West 6.9 mph - N/A   Unknown
7:15 PM 42.8 °F 38.6 °F 30.2 °F 61% 30.01 in 10.0 mi West 6.9 mph - N/A   Unknown
7:35 PM 42.8 °F 38.6 °F 30.2 °F 61% 30.01 in 10.0 mi West 6.9 mph - N/A   Unknown
7:55 PM 42.8 °F 39.3 °F 30.2 °F 61% 30.01 in 10.0 mi West 5.8 mph - N/A   Unknown
8:15 PM 42.8 °F 38.6 °F 30.2 °F 61% 30.02 in 10.0 mi West 6.9 mph - N/A   Unknown
8:35 PM 42.8 °F 39.3 °F 30.2 °F 61% 30.02 in 10.0 mi West 5.8 mph - N/A   Unknown
8:55 PM 42.8 °F 38.0 °F 30.2 °F 61% 30.02 in 10.0 mi West 8.1 mph - N/A   Unknown
9:15 PM 41.0 °F 35.8 °F 30.2 °F 65% 30.02 in 10.0 mi West 8.1 mph - N/A   Unknown
9:35 PM 41.0 °F 37.1 °F 30.2 °F 65% 30.03 in 10.0 mi West 5.8 mph - N/A   Unknown
9:55 PM 41.0 °F 37.1 °F 32.0 °F 70% 30.03 in 10.0 mi West 5.8 mph - N/A   Unknown
10:15 PM 41.0 °F 36.4 °F 32.0 °F 70% 30.03 in 10.0 mi WNW 6.9 mph - N/A   Unknown
10:35 PM 41.0 °F 35.8 °F 30.2 °F 65% 30.03 in 10.0 mi West 8.1 mph - N/A   Unknown
10:55 PM 41.0 °F 36.4 °F 30.2 °F 65% 30.03 in 10.0 mi WNW 6.9 mph - N/A   Unknown
11:15 PM 41.0 °F 35.8 °F 30.2 °F 65% 30.03 in 10.0 mi WNW 8.1 mph - N/A   Unknown
11:35 PM 41.0 °F 35.8 °F 30.2 °F 65% 30.02 in 10.0 mi West 8.1 mph - N/A   Unknown
11:55 PM 41.0 °F 35.8 °F 30.2 °F 65% 30.02 in 10.0 mi WNW 8.1 mph - N/A   Unknown